Satellite-Ground Cal/Val Site Overpasses Predictions

Prediction of Satellite NPP Overpassing Cal/Val Site: Antarctic Dome C

Ground Cal/Val Site Location: Latitude: -75.10, Longitude: 123.35; Satellite-Ground Site NADIR distance within 100 km.

Table of predicted overpasses for the next 14.0 days since TLE Epoch: 1/29/2022
Interval Starting Time Ending Time Minimum Distance Time Minimum Distance (km)
1 01/29/2022 07:37:57 01/29/2022 07:38:24 01/29/2022 07:38:11 35.74
2 01/30/2022 07:19:10 01/30/2022 07:19:29 01/30/2022 07:19:20 74.57
3 02/01/2022 15:01:20 02/01/2022 15:01:44 02/01/2022 15:01:32 55.85
4 02/02/2022 14:42:29 02/02/2022 14:42:54 02/02/2022 14:42:41 53.36
5 02/03/2022 07:44:09 02/03/2022 07:44:30 02/03/2022 07:44:19 70.32
6 02/04/2022 07:25:14 02/04/2022 07:25:41 02/04/2022 07:25:28 37.83
7 02/06/2022 15:07:36 02/06/2022 15:07:46 02/06/2022 15:07:41 92.89
8 02/07/2022 14:48:36 02/07/2022 14:49:04 02/07/2022 14:48:50 18.33
